Location: Ariel
(45.9570°N, 122.5700°W)
Time: 14:16:13
(UTC-07:00)

S-56A Canister/Altair - Visible Passes

Search period start: 18 July 2019 00:00
Search period end: 28 July 2019 00:00
Orbit: 632 x 2500 km, 38.9° (Epoch: 17 July)

Date Brightness Start Highest point End Pass type
(mag) Time Alt. Az. Time Alt. Az. Time Alt. Az.
24 Jul 10.7 04:59:50 10° S 05:06:45 22° SE 05:15:23 10° E visible
25 Jul 10.7 04:28:15 10° SSE 04:34:01 18° SE 04:41:00 10° E visible
26 Jul 10.7 03:57:07 10° SSE 04:01:21 14° SE 04:06:14 10° E visible
27 Jul 10.7 03:27:39 10° SE 03:28:46 10° ESE 03:29:55 10° ESE visible
